Theta_e
312 312 312 312 312 312 312 312 312 312 312 312 312 312 312 312 312 312 312 313 312 313 313 313 314 313 314 314 314 314 314 309 305 302 300 304 310 317 319 322 321 322 323 304 304 304 300 300 300 300 300 297 298 297 299 302 298 295 290 283 284 284 285 287 288 288 290 291 293 294 293 294 293 295 304 327 324 324 326 326 329 334 333 334 336 337 337 338
311 312 311 311 311 312 312 312 312 312 312 312 312 312 312 312 312 312 313 313 313 313 313 313 313 313 313 312 313 314 311 307 302 301 301 311 320 320 321 321 326 324 320 303 301 298 299 297 297 298 297 295 298 296 300 298 302 292 286 285 286 285 288 290 290 290 291 292 293 294 294 293 294 293 300 319 317 318 321 325 329 329 333 335 336 336 336 336
311 311 311 311 311 311 311 311 311 311 312 312 312 312 312 312 312 312 312 312 313 313 312 312 313 313 312 312 313 314 308 304 301 295 302 321 320 322 323 324 326 325 313 302 299 299 299 298 297 297 295 292 298 295 299 297 300 295 287 286 288 289 288 289 291 293 293 293 293 294 294 292 295 294 306 316 314 318 319 322 325 327 329 332 334 334 335 335
310 310 310 311 311 311 311 311 311 311 311 311 312 312 312 312 312 312 312 312 313 312 312 312 313 312 313 312 313 311 306 300 289 298 305 322 326 323 324 328 327 323 306 303 302 299 297 298 298 297 295 293 294 296 295 296 297 293 292 288 291 291 293 293 294 293 294 293 293 292 293 293 295 294 313 315 315 314 317 324 326 326 330 332 334 334 334 334
310 310 310 310 311 311 311 311 311 311 311 311 311 311 312 312 312 312 312 312 312 312 312 312 312 312 312 313 313 309 302 285 299 303 308 330 331 326 324 329 327 309 304 302 300 298 298 298 298 295 292 291 294 295 293 295 296 293 294 296 295 294 293 294 295 294 294 294 293 291 292 294 294 299 314 316 309 309 314 321 327 331 333 334 333 333 334 334
310 310 310 310 310 311 311 311 311 311 311 311 311 312 312 312 312 312 312 312 312 312 312 312 312 312 313 312 308 305 290 281 295 299 328 332 332 326 325 330 321 305 303 301 298 296 298 296 297 294 292 291 292 292 292 295 298 291 292 293 294 294 294 295 296 297 295 293 293 291 294 293 293 293 295 310 312 312 316 324 330 334 335 337 337 335 333 333
310 310 310 310 310 310 311 311 311 311 311 311 311 311 311 311 312 312 312 312 312 312 312 312 312 312 312 311 301 297 290 291 299 302 329 333 331 326 326 329 325 305 300 297 297 297 295 294 293 291 292 291 291 292 294 297 297 295 292 291 295 294 293 293 296 296 294 292 293 295 293 292 293 291 295 312 318 315 326 329 333 335 337 338 335 335 333 333
310 310 310 310 310 310 310 311 311 310 311 311 311 311 311 311 311 311 311 312 311 311 312 312 311 312 312 303 300 293 288 288 297 300 335 332 327 326 325 318 312 304 299 297 296 294 294 294 294 292 290 289 290 294 295 295 294 293 292 294 294 295 295 295 294 293 293 292 293 293 291 294 293 292 296 300 306 323 329 332 334 336 336 336 336 335 335 334
309 310 310 310 310 310 310 310 310 311 311 311 311 310 311 311 311 311 311 311 311 311 311 312 311 311 311 303 294 286 286 290 299 315 320 321 320 318 316 312 307 304 299 296 295 295 297 293 294 293 289 291 294 294 293 293 290 293 295 296 296 295 296 295 293 293 293 294 294 291 292 293 292 293 297 299 308 326 331 331 333 334 334 334 335 335 334 327
310 310 310 310 310 310 310 310 310 310 311 310 310 310 310 310 310 310 311 311 310 311 311 312 311 310 304 300 289 284 292 294 315 317 321 319 315 311 304 307 306 301 300 296 294 296 297 294 296 296 294 294 294 294 292 293 291 292 293 293 295 295 294 292 291 291 291 290 291 292 292 293 293 295 289 296 319 330 331 331 333 333 332 334 335 332 327 324
309 310 310 310 310 310 310 310 310 310 310 310 310 310 310 310 310 310 310 310 310 310 311 311 311 308 303 301 289 286 294 312 312 314 317 315 312 308 304 306 304 302 300 296 295 297 296 297 296 298 298 294 294 292 293 293 294 293 294 292 290 290 290 290 289 290 290 292 290 291 291 292 291 292 292 294 325 330 329 330 331 331 331 333 334 327 326 324
309 309 310 310 309 310 310 310 310 310 310 310 310 310 310 310 310 310 310 310 310 311 311 311 310 307 304 299 291 292 297 310 311 309 313 312 309 310 305 307 304 303 299 297 296 297 297 298 300 298 292 299 292 294 293 294 294 292 293 289 288 289 291 288 290 292 291 291 292 290 291 291 291 289 292 299 327 328 328 328 329 330 332 333 330 325 324 323
309 309 309 309 309 309 309 309 310 310 310 310 309 309 309 309 310 310 310 310 310 310 310 311 308 306 301 288 292 300 300 300 301 302 302 301 303 307 307 304 306 303 302 299 297 298 298 299 301 298 298 296 294 292 295 295 294 294 292 288 288 287 287 290 290 290 291 291 291 292 284 283 286 290 291 313 326 326 327 327 328 329 331 332 327 324 324 324
309 309 309 309 309 309 309 309 309 309 309 309 309 309 309 309 310 310 310 309 310 310 311 312 308 305 298 289 294 298 300 301 303 303 302 304 301 301 304 303 305 304 302 300 298 298 299 299 300 300 299 296 294 296 296 290 290 290 288 289 285 283 281 286 290 289 291 291 290 293 285 285 288 291 291 305 327 325 323 326 327 328 329 331 326 323 322 323
309 309 308 309 309 309 309 309 309 309 309 309 309 309 309 308 310 310 310 309 309 310 310 310 305 302 292 294 301 305 316 306 304 303 304 303 302 302 301 301 300 301 301 300 301 300 299 300 300 296 293 297 296 294 288 284 284 285 286 282 279 283 282 287 291 291 291 291 291 292 285 286 290 292 294 315 324 324 324 326 327 328 329 330 326 323 323 321
308 308 308 308 308 308 308 309 309 309 309 309 309 308 309 309 309 311 309 309 311 311 309 303 303 301 291 289 298 314 313 303 303 310 307 305 303 302 301 300 298 299 299 300 300 300 298 299 295 292 294 295 294 287 284 284 282 281 284 281 281 281 281 286 290 289 290 290 291 292 285 284 289 288 294 313 324 324 324 325 326 327 329 330 326 323 323 321
308 308 308 308 308 308 308 308 308 308 308 308 308 308 308 309 311 309 311 310 310 308 304 300 303 302 287 295 305 300 298 301 306 310 307 306 305 302 300 299 298 297 297 298 299 297 297 297 295 295 291 291 286 285 285 279 280 280 281 282 281 284 283 282 286 291 289 291 288 288 288 286 289 291 292 299 323 321 322 324 325 327 328 330 326 323 322 321
308 308 308 308 307 307 308 308 308 308 308 308 307 307 305 308 311 310 309 308 308 306 304 306 301 291 288 299 294 295 303 304 305 308 307 306 306 303 301 300 298 297 297 297 299 295 296 292 293 288 288 289 287 283 282 278 280 281 280 281 282 281 283 284 285 287 291 289 288 287 287 287 290 291 292 295 320 320 320 323 324 326 327 328 323 323 322 322
307 307 307 307 307 307 307 307 308 308 308 307 307 307 308 309 305 302 303 304 297 290 287 291 289 282 284 293 296 299 300 304 305 305 302 304 304 302 304 301 299 299 295 294 294 295 294 291 292 286 286 285 285 286 285 284 283 283 283 281 281 281 283 283 285 288 290 288 288 288 287 289 290 290 290 293 312 318 319 321 324 326 327 325 323 323 323 322
307 307 307 307 307 307 307 307 307 308 307 305 303 301 297 290 285 287 299 301 297 295 292 296 296 294 296 298 298 301 304 305 301 301 304 308 304 301 300 301 297 295 293 291 291 293 291 287 284 285 285 286 285 286 287 285 286 286 285 284 282 282 284 286 287 289 289 290 287 289 288 287 289 291 291 293 304 315 312 316 320 324 326 323 323 323 323 323
307 307 307 307 307 307 307 307 307 307 307 304 301 294 289 288 285 284 288 291 298 300 298 298 299 297 297 300 300 300 297 297 300 299 303 306 303 301 296 297 294 293 290 292 291 296 293 286 287 287 287 288 289 288 287 287 288 287 286 284 283 282 283 287 287 289 290 289 285 287 287 288 290 292 291 291 303 311 311 313 318 323 325 323 323 323 323 324
306 306 306 306 307 307 307 307 307 307 306 302 299 293 295 293 296 296 293 288 293 296 298 298 299 298 302 302 303 302 300 295 296 297 300 306 301 297 294 294 289 290 289 291 292 289 286 285 288 288 289 290 289 288 288 288 287 286 285 283 282 283 283 287 288 289 291 290 287 287 288 290 292 292 292 291 302 309 312 314 317 322 324 322 323 323 323 324
306 306 306 306 306 307 307 307 307 305 298 296 292 294 294 299 300 301 298 291 290 295 295 296 295 296 297 301 301 302 295 293 291 295 298 302 297 298 293 292 290 289 289 291 288 285 285 286 288 290 289 289 288 288 287 287 287 284 284 283 282 283 284 281 285 289 291 291 288 289 288 290 290 288 289 290 295 300 308 312 316 322 323 323 323 324 324 323
306 306 306 306 306 306 307 306 305 298 293 295 296 295 299 301 300 300 295 288 288 292 295 296 297 296 296 295 299 300 294 293 294 294 301 299 297 294 294 292 288 288 288 288 289 287 288 289 289 289 289 289 288 287 286 284 283 283 285 283 282 284 284 284 285 288 289 290 290 288 286 284 283 286 287 296 300 298 301 311 314 319 324 325 325 325 325 325
306 306 306 306 306 307 306 306 294 296 298 296 295 300 301 301 302 300 293 289 286 288 296 296 298 298 298 304 303 297 295 296 296 298 301 300 294 293 291 292 289 287 288 287 287 286 287 291 289 289 288 288 288 286 285 286 281 281 284 287 286 286 285 285 286 287 283 283 285 288 279 278 281 285 290 297 300 293 299 309 313 318 321 323 322 323 325 325
306 306 306 306 306 305 306 295 293 298 296 294 297 301 302 301 302 303 289 281 280 286 293 289 300 293 303 297 299 297 296 291 298 300 301 302 303 297 294 291 292 288 287 287 287 286 289 291 292 288 287 286 286 285 285 287 282 281 283 287 288 288 287 285 286 286 280 281 288 289 281 279 280 288 297 303 303 300 303 307 312 317 320 322 322 322 323 323
306 305 306 306 305 306 296 286 298 299 292 294 298 301 301 301 302 300 290 274 272 285 289 294 294 293 300 296 299 294 281 283 298 300 300 303 299 299 293 289 291 291 291 289 287 286 289 289 289 289 287 286 284 284 285 287 283 280 283 287 288 286 286 286 287 285 282 285 287 285 282 280 280 283 299 303 301 302 303 307 312 316 319 320 321 322 323 322
305 305 305 306 305 304 299 300 298 294 295 298 302 301 301 301 301 297 283 270 270 288 292 291 293 302 297 299 299 290 288 295 290 294 300 301 300 297 295 289 291 290 289 289 283 289 289 287 287 286 287 283 284 286 287 288 285 285 286 289 287 288 287 287 287 283 283 283 282 280 286 282 277 280 290 300 299 300 302 306 311 315 318 319 321 322 322 321
305 305 305 305 305 305 304 300 298 295 299 301 302 301 302 301 295 288 274 270 282 289 302 292 303 296 294 298 294 293 291 294 290 294 299 300 300 295 291 290 292 291 289 292 287 288 289 290 289 289 286 284 287 286 289 289 285 289 288 290 290 289 289 288 283 285 283 281 278 281 283 280 277 277 288 297 301 299 301 305 310 314 317 319 320 321 320 320
305 305 305 305 304 301 297 302 298 301 302 302 301 301 300 293 287 282 274 268 285 283 292 293 290 287 291 291 291 293 291 290 293 296 298 295 297 299 296 294 292 289 289 290 289 290 291 300 294 288 286 289 288 288 290 290 291 289 290 288 287 283 283 284 282 280 280 275 280 283 282 283 279 278 287 292 296 300 301 304 307 313 317 319 320 320 319 319
305 305 305 305 299 300 299 293 295 300 301 301 301 297 290 285 278 269 269 276 288 288 290 287 287 291 286 285 283 289 291 291 291 294 291 295 294 294 293 292 291 286 284 286 286 287 289 290 291 290 293 291 290 289 289 292 291 291 288 285 283 285 280 281 277 278 275 271 278 279 282 282 278 279 286 288 293 298 304 304 306 311 315 318 319 318 319 319
305 305 305 303 303 304 296 291 293 300 301 302 299 288 286 276 277 272 270 288 280 284 283 283 287 286 286 286 285 286 287 289 291 291 290 289 288 290 288 283 286 281 280 280 283 286 287 288 287 289 299 293 289 287 285 287 289 288 284 285 281 275 274 273 276 275 273 275 279 282 282 283 280 281 291 298 301 302 302 307 309 311 314 317 318 318 318 319
305 304 306 305 305 302 302 303 302 301 301 300 291 283 277 268 268 273 277 281 279 286 283 289 285 286 285 284 284 288 289 287 291 292 292 290 289 289 290 289 288 287 278 280 282 282 284 285 287 288 289 294 291 285 281 284 285 285 284 280 278 276 270 266 268 270 274 279 281 283 284 281 281 287 293 300 303 304 304 306 311 313 315 316 316 316 316 315
304 305 301 302 303 303 304 303 303 301 298 295 284 281 275 268 269 289 279 281 283 287 286 285 286 285 285 284 286 289 286 290 290 290 291 288 288 285 287 289 288 288 286 281 281 281 275 278 284 286 285 290 291 291 290 286 284 287 285 286 282 277 273 269 273 271 276 277 279 283 282 278 284 286 301 302 304 306 305 308 310 312 313 312 313 313 313 313
304 303 300 300 302 303 304 304 300 301 292 287 281 275 269 268 272 274 278 280 283 285 283 287 283 282 282 283 285 287 291 286 292 290 288 287 284 284 286 288 289 287 285 282 282 278 282 279 284 288 290 290 289 292 290 286 285 285 284 285 282 281 278 279 274 277 278 279 279 281 279 282 285 298 302 302 305 305 307 307 310 310 311 312 311 311 311 313
301 298 298 297 299 302 304 304 301 299 288 284 277 273 269 272 276 278 282 286 284 282 283 284 282 278 278 279 283 284 288 290 291 289 288 288 287 286 289 289 289 290 286 282 280 281 280 280 285 287 289 289 290 291 291 290 281 284 285 282 285 286 284 276 277 279 275 274 275 277 284 285 289 294 301 304 303 303 306 308 308 309 310 311 311 312 313 314
297 300 296 299 302 303 303 304 303 293 286 281 273 270 273 278 279 281 289 286 286 285 280 277 277 280 279 278 279 281 286 291 292 288 285 289 287 288 289 290 290 290 290 290 283 283 279 280 285 287 289 290 290 290 292 290 289 285 282 284 288 289 287 282 275 271 269 271 271 280 282 282 282 282 297 300 300 303 306 307 307 308 309 309 311 312 314 315
297 297 302 303 304 303 304 304 301 290 283 277 273 285 280 283 286 286 287 288 287 286 280 279 278 283 280 280 278 281 284 282 282 288 284 288 285 292 291 290 294 291 292 290 289 286 286 281 283 285 288 289 291 291 287 289 290 289 283 288 286 278 281 279 277 271 272 271 269 279 280 280 281 283 292 295 298 301 305 308 307 307 308 309 310 312 314 315
297 296 295 302 304 305 304 304 298 290 281 277 270 278 284 284 288 288 290 290 288 284 280 279 278 281 284 281 280 281 284 280 284 286 284 287 285 292 293 292 293 293 291 291 288 284 286 281 281 284 286 289 289 285 281 282 289 290 291 288 289 283 280 278 277 278 278 271 270 274 279 276 283 286 295 296 299 302 304 306 307 308 308 308 309 311 312 313
298 294 293 303 305 305 305 303 293 288 283 279 279 279 283 287 290 291 291 291 288 284 280 281 282 280 283 284 285 281 281 283 285 284 285 287 288 295 294 298 292 294 291 291 289 288 283 284 275 281 285 288 285 286 284 280 283 285 285 283 286 284 285 284 283 281 278 271 269 271 272 277 283 294 298 299 300 302 303 303 304 306 308 309 310 310 311 312
294 292 294 304 306 306 304 295 289 285 284 283 284 285 288 289 291 291 293 293 290 291 289 285 285 283 282 282 284 285 282 287 287 285 287 288 289 284 294 296 295 294 293 291 290 286 282 282 278 279 282 280 284 287 290 287 283 282 283 280 283 282 283 280 277 281 279 277 272 273 271 276 286 301 302 300 297 300 304 306 306 306 307 307 308 310 311 311
291 287 294 304 306 305 297 289 285 286 284 285 285 288 288 296 290 289 291 291 291 289 290 288 286 286 285 285 286 284 285 283 287 287 289 287 292 290 295 296 296 295 291 287 288 291 287 282 282 281 282 284 287 291 291 293 292 286 288 287 284 280 281 276 274 278 280 282 280 278 275 277 294 303 303 302 303 304 305 305 305 306 307 307 308 310 310 311
288 290 301 305 306 301 289 280 283 283 284 286 291 290 291 290 290 290 289 289 289 289 288 287 286 285 285 286 286 283 284 283 288 286 288 291 291 293 294 296 295 296 293 288 292 291 302 280 279 280 280 283 287 288 289 291 293 288 290 287 286 286 283 282 277 279 279 280 279 276 275 279 295 305 305 305 306 305 305 305 304 304 306 308 310 310 310 310
289 292 297 302 303 299 291 283 280 278 281 287 288 289 291 291 289 288 287 288 288 288 286 286 288 288 286 286 286 285 289 282 288 290 288 292 291 295 295 295 296 295 293 292 290 293 285 284 279 277 274 276 278 282 283 286 289 285 286 286 288 287 285 282 282 280 279 281 278 278 273 279 296 305 305 305 305 305 305 305 306 304 304 304 305 307 308 309
289 293 295 295 298 298 290 283 281 278 281 283 284 285 286 287 290 290 290 288 291 289 287 285 288 288 287 288 287 288 291 289 285 290 291 292 292 296 296 298 298 298 300 301 303 295 287 285 282 274 271 271 271 272 273 276 285 284 287 287 288 286 284 284 282 279 277 279 280 278 277 286 299 303 302 303 304 303 303 302 301 301 301 301 302 302 303 303
289 284 287 287 289 289 288 289 286 285 280 283 279 282 286 284 288 291 291 290 291 290 288 288 288 289 287 287 286 286 287 292 289 288 288 288 291 295 296 297 302 301 305 307 302 294 285 286 284 280 278 277 276 276 280 284 282 282 285 285 286 285 285 284 280 277 276 277 276 282 288 291 296 298 299 301 302 301 299 298 298 298 299 300 300 300 300 299
287 283 281 284 287 285 284 284 288 287 285 283 279 285 283 284 286 288 292 286 291 290 289 289 288 284 283 284 282 284 286 286 288 289 290 289 292 294 295 296 297 303 307 303 301 289 285 284 286 284 284 281 282 283 285 287 284 284 283 284 287 287 285 283 277 282 281 283 278 287 293 292 294 298 299 300 300 297 295 295 296 296 297 297 298 298 298 298
284 284 286 290 286 282 283 282 288 286 288 287 284 287 284 283 283 281 287 290 291 290 286 286 284 285 285 284 284 281 282 283 284 281 288 289 290 292 293 295 294 300 302 297 297 290 285 281 287 284 285 287 288 287 288 287 285 284 285 285 287 288 287 285 283 283 281 277 279 291 295 293 292 293 297 297 296 293 293 294 295 297 297 296 296 295 295 296
287 286 289 290 285 282 282 288 292 289 286 289 285 288 283 284 282 286 285 286 287 288 286 279 282 284 284 284 283 280 281 280 280 283 285 284 287 286 288 291 295 296 297 295 294 290 287 283 287 286 284 286 288 287 287 286 284 284 284 286 288 289 288 288 287 286 284 284 290 293 289 286 289 291 293 293 294 294 293 295 295 294 294 294 294 294 294 295
287 285 287 286 284 283 284 287 289 284 282 288 283 283 285 285 284 286 288 286 280 284 287 283 284 285 285 284 281 280 283 284 284 280 286 284 283 287 286 288 289 293 295 293 294 293 288 283 289 286 282 282 287 288 287 286 284 283 284 286 286 287 290 291 291 292 293 291 290 290 288 285 290 293 292 294 294 293 293 292 292 293 294 294 293 293 294 294
290 288 288 285 281 282 287 282 283 280 277 280 280 282 287 286 285 289 288 291 287 285 286 284 285 285 284 284 283 284 286 285 286 287 289 288 282 288 285 287 293 289 292 289 291 291 289 283 287 284 282 282 286 286 286 286 283 282 283 284 286 285 285 286 286 289 288 288 290 289 287 285 289 291 291 291 291 291 290 291 291 292 293 293 292 293 293 293
290 292 287 281 280 285 281 280 280 279 278 280 284 283 285 284 286 290 281 288 291 291 289 288 286 284 281 282 283 285 287 287 287 288 288 291 294 293 292 291 289 288 289 289 291 286 287 286 284 284 283 280 286 287 285 285 285 282 279 284 286 288 289 288 288 288 289 292 289 288 287 288 290 291 288 288 289 289 289 290 291 292 292 292 292 292 292 293
Wind_Speed
11 11 12 12 12 13 13 13 13 13 13 14 14 14 14 14 14 14 13 13 14 14 14 14 13 14 13 14 15 15 14 10 11 4 3 13 9 8 12 2 9 16 8 3 7 9 3 3 4 1 3 3 0 3 2 0 1 2 2 5 2 5 3 4 4 6 1 2 6 11 5 6 10 7 4 2 4 3 3 6 3 4 5 3 5 15 14 14
11 11 12 12 13 13 13 14 14 13 14 14 14 14 14 14 14 14 14 14 14 14 14 14 14 14 14 14 15 15 12 9 10 9 16 9 7 10 10 7 4 14 10 3 9 5 10 2 2 4 5 2 1 1 2 1 1 3 2 3 9 5 5 6 2 3 2 6 8 8 5 3 5 4 3 2 1 3 4 4 3 6 7 9 11 14 15 15
11 12 12 12 13 13 13 14 14 14 14 14 14 15 15 14 14 14 14 14 14 15 15 14 14 14 14 15 15 12 9 7 4 6 4 7 17 10 10 6 8 17 11 6 4 8 8 10 7 5 1 3 0 2 1 1 3 3 6 3 9 4 2 4 2 5 4 6 8 9 6 6 9 4 0 2 3 1 5 3 4 7 11 13 13 13 14 14
12 12 12 12 13 13 13 14 14 14 14 14 15 15 15 15 15 15 15 15 15 15 15 15 14 14 15 15 15 8 5 3 2 1 2 6 6 13 10 8 14 15 5 3 6 5 4 8 6 5 2 3 1 1 4 2 2 1 2 6 5 2 1 2 1 4 5 4 5 5 6 8 7 4 1 1 1 4 6 8 7 10 16 15 15 15 13 13
11 11 12 12 12 13 13 14 14 14 14 14 14 15 15 15 15 15 15 15 14 15 15 15 15 15 16 15 16 5 4 3 1 1 3 7 4 11 13 10 14 9 4 6 7 5 7 7 5 1 3 2 0 1 2 1 2 3 7 7 3 2 3 4 3 6 4 5 2 4 7 7 5 4 1 1 5 8 5 4 7 5 14 18 17 17 14 15
12 12 12 12 12 13 13 13 14 14 14 14 15 15 15 16 15 15 15 15 14 14 15 14 15 15 16 16 7 1 1 1 1 2 5 4 4 14 15 12 14 7 8 5 4 4 8 3 5 2 1 2 4 5 2 2 2 3 4 6 6 4 5 1 4 7 5 5 5 5 3 3 4 9 5 5 7 5 2 5 9 9 10 11 13 16 14 14
12 13 12 12 13 13 13 13 13 14 14 15 15 15 15 15 15 15 14 14 14 14 14 14 14 15 15 11 0 1 1 7 4 7 8 6 9 16 16 12 10 6 4 5 4 5 2 6 4 3 3 2 0 2 2 0 0 2 6 3 4 2 4 6 6 8 7 4 7 3 4 5 7 8 2 2 8 5 2 3 8 12 10 11 12 14 15 13
12 13 13 13 13 13 13 13 14 14 15 15 15 15 15 15 15 15 14 14 14 14 14 14 14 13 13 5 2 2 1 7 11 5 5 9 10 14 13 5 6 4 4 6 8 5 5 7 7 3 2 7 3 6 1 2 0 3 6 2 3 3 4 5 5 5 7 9 7 1 4 10 6 4 3 6 8 1 2 4 10 12 12 11 10 10 8 7
12 13 13 13 14 14 14 14 14 15 14 15 14 14 14 14 15 15 15 14 13 14 14 13 13 11 8 2 1 5 6 6 4 4 3 8 8 10 11 6 4 6 3 3 3 7 6 3 3 4 3 2 1 3 1 2 4 6 7 2 5 5 5 5 5 7 9 7 2 4 7 9 5 6 4 10 4 3 5 7 9 11 13 12 11 8 9 9
13 13 13 14 14 14 14 14 15 15 15 15 15 15 15 15 15 15 14 14 13 12 13 12 10 10 4 2 1 2 6 5 3 4 6 9 8 9 7 5 5 5 5 3 4 7 7 6 7 4 4 1 4 1 2 5 5 3 4 4 6 7 4 2 3 5 4 3 2 3 9 6 1 5 7 1 3 7 8 9 8 10 11 9 9 8 8 11
14 14 14 15 15 15 15 15 15 15 15 15 15 15 15 15 15 15 14 14 13 13 11 10 8 7 3 1 1 4 5 3 1 3 8 8 9 7 3 7 4 3 3 1 4 5 2 7 4 3 1 2 3 1 3 3 1 2 4 2 5 6 3 5 4 9 3 5 3 6 8 1 2 1 7 4 4 8 11 11 11 8 10 10 10 9 8 11
14 15 15 15 15 15 15 15 16 16 16 16 17 16 16 16 16 15 15 14 14 11 9 7 5 2 1 1 3 9 2 2 3 3 6 7 5 7 6 8 7 6 6 4 4 3 3 5 5 3 1 0 1 0 1 2 0 3 0 4 6 6 5 1 4 5 3 4 1 5 3 7 1 4 8 3 6 6 8 11 11 9 8 10 10 10 9 11
14 15 15 15 15 15 15 16 15 16 16 16 17 17 17 17 17 18 16 14 12 10 7 6 2 2 1 3 11 8 2 3 1 4 3 2 0 2 6 7 9 7 8 4 2 4 5 1 3 2 1 2 2 0 1 1 2 0 0 1 5 5 7 5 1 2 1 4 2 5 6 7 7 10 3 3 9 6 8 9 10 8 9 9 9 10 9 9
15 15 16 16 16 16 16 16 16 16 17 17 17 17 17 18 19 18 16 14 11 8 7 3 2 1 1 7 8 4 6 4 3 5 8 3 2 3 3 3 6 5 1 2 1 3 6 1 2 1 1 1 1 2 4 3 3 2 3 1 1 3 5 4 1 1 1 3 4 4 4 8 8 10 3 4 8 13 11 10 9 10 10 10 9 9 9 9
16 16 16 16 16 16 17 17 17 17 17 17 18 18 20 20 20 17 14 9 8 6 6 4 2 2 1 9 7 12 10 2 2 9 5 5 5 1 4 3 4 4 3 3 0 0 2 2 1 1 1 1 1 2 4 2 4 2 2 5 4 2 6 11 6 1 1 2 2 5 2 7 8 9 2 5 4 6 9 11 11 10 10 10 10 10 7 7
16 16 16 16 17 17 17 17 18 17 18 18 19 20 20 21 18 14 5 4 3 6 5 2 2 3 2 9 1 3 4 1 4 7 5 8 7 7 3 8 3 2 3 0 2 1 1 3 2 5 2 2 0 0 3 4 3 5 1 3 3 0 4 5 1 3 2 2 1 2 5 4 6 2 2 3 8 6 8 10 10 11 10 10 11 10 7 8
16 16 17 17 17 17 18 18 18 18 18 18 21 19 19 15 13 2 2 6 4 4 2 1 2 2 1 3 2 0 2 3 3 1 2 5 6 3 7 4 2 3 3 0 1 2 1 1 1 1 3 2 2 2 0 3 5 2 1 1 2 2 2 1 8 0 4 2 3 3 2 5 7 10 0 2 6 7 8 10 11 9 9 8 10 10 9 9
16 16 16 16 17 17 17 17 17 17 18 17 18 17 12 13 4 7 8 5 3 2 0 1 2 2 9 2 2 2 1 4 2 2 3 2 7 3 1 1 4 5 5 2 0 2 0 1 1 4 2 1 3 2 5 5 4 1 0 1 3 1 3 5 1 3 10 3 3 3 2 7 10 10 1 5 7 9 11 12 12 10 11 9 9 10 11 10
16 16 16 16 16 17 17 17 17 18 18 18 16 12 6 5 1 1 4 2 2 1 1 2 3 4 4 1 4 4 2 5 4 1 2 6 3 3 1 2 5 5 1 2 1 4 0 1 3 2 5 3 4 6 7 2 4 4 2 2 2 3 5 3 4 5 1 5 7 6 6 8 9 9 3 5 7 11 12 7 6 7 9 8 8 8 9 10
16 16 16 16 17 17 17 17 17 17 19 12 8 4 1 1 1 1 1 1 4 7 3 3 7 5 12 10 5 3 4 2 1 1 2 1 8 5 1 1 2 4 4 3 0 3 4 4 4 8 3 4 3 6 7 6 3 2 2 1 4 4 8 2 3 5 2 2 6 8 6 5 9 9 6 8 7 8 4 6 8 8 10 9 9 13 11 10
16 16 16 17 17 17 17 17 17 17 19 6 5 1 2 0 2 3 3 10 10 7 11 11 14 12 12 1 0 6 7 4 1 1 0 2 4 9 2 2 2 2 2 4 5 1 3 4 9 6 6 7 7 6 4 3 0 2 1 3 7 3 9 2 3 3 4 4 4 3 2 7 10 10 5 4 5 12 11 10 10 11 10 10 13 13 12 7
16 16 17 17 17 18 17 17 17 19 10 1 1 2 0 2 0 1 1 7 4 14 12 17 7 9 11 13 6 2 4 3 13 5 4 6 3 8 2 4 4 7 0 2 1 1 1 7 4 6 7 4 4 4 4 4 2 1 3 2 5 7 5 7 5 3 1 5 7 4 2 9 11 7 6 9 12 12 16 16 16 14 12 9 11 12 10 10
16 17 16 17 18 18 18 17 18 8 2 2 3 0 2 2 2 3 1 2 10 4 11 9 5 15 16 7 2 8 4 6 10 4 2 5 3 6 6 4 5 4 2 3 6 2 2 7 8 5 4 4 1 3 4 3 1 2 1 1 9 2 3 6 5 2 2 0 4 5 6 10 7 7 5 3 7 5 8 13 11 15 16 14 16 16 15 13
16 16 17 17 18 19 18 20 10 4 2 1 3 5 2 2 3 2 3 2 7 4 6 6 9 5 10 1 4 9 9 5 5 8 4 6 9 3 5 7 4 3 7 6 7 8 8 3 1 5 5 6 5 3 3 2 4 2 4 4 4 0 4 7 6 3 5 4 2 3 3 7 4 6 6 6 5 6 4 3 5 8 12 15 12 9 13 17
16 16 16 18 18 19 20 14 4 3 4 4 5 5 6 5 2 1 2 4 3 6 2 1 4 5 3 2 7 8 3 1 8 2 5 11 4 4 4 1 4 6 6 5 3 3 9 8 3 5 1 2 3 1 4 5 5 2 6 10 7 5 7 8 3 4 6 6 1 0 5 4 4 4 5 7 7 4 2 7 9 13 12 10 12 15 11 8
16 16 16 17 18 20 17 1 2 5 7 3 2 1 1 3 3 1 3 3 4 5 3 2 2 2 4 1 4 4 4 4 10 8 5 8 8 5 2 2 3 9 5 4 6 3 6 1 7 6 5 4 4 4 4 6 6 1 6 9 11 10 8 5 2 2 1 1 2 2 1 7 4 3 7 5 6 9 3 5 9 10 12 13 13 12 13 12
15 16 16 16 15 16 7 1 1 7 1 1 1 3 2 3 3 1 1 4 3 3 0 0 1 1 2 3 5 4 2 6 2 4 4 3 9 1 7 4 1 1 3 2 2 5 2 2 5 3 4 5 2 4 5 10 5 3 6 9 7 6 5 6 2 4 6 2 4 2 3 4 7 4 3 3 1 5 3 4 7 10 12 13 11 10 10 10
16 15 15 15 13 10 3 6 8 3 7 1 2 4 3 4 1 1 3 2 1 1 1 1 2 2 0 4 8 6 2 0 1 3 6 3 6 0 4 7 8 8 4 5 9 3 5 4 5 4 2 3 7 5 4 8 7 7 2 9 8 10 9 4 4 4 2 1 9 2 0 0 3 3 3 4 3 4 7 8 10 12 11 9 7 7 8 8
16 15 15 14 15 14 5 5 2 7 4 2 7 7 5 2 2 3 2 1 2 2 2 3 5 1 3 2 3 4 3 1 0 2 3 1 1 5 3 6 6 5 4 11 9 1 2 6 10 9 7 6 6 4 9 11 5 6 4 3 2 2 2 3 3 3 1 1 7 5 2 2 6 5 2 3 1 6 7 6 7 8 8 8 8 8 9 8
16 15 15 15 11 3 1 2 9 9 4 8 8 8 3 2 3 1 3 3 2 1 3 2 1 4 1 3 3 4 4 4 1 1 3 3 2 0 1 3 3 3 3 1 2 6 2 2 7 6 6 8 5 5 9 12 11 3 6 3 2 5 2 3 4 2 3 2 10 5 3 2 4 3 4 3 4 4 5 5 5 5 8 9 8 9 9 9
17 16 15 13 6 2 2 4 8 6 4 5 8 5 1 7 2 2 1 4 2 1 3 4 2 1 2 1 4 3 4 3 3 4 3 0 2 2 1 4 5 4 2 2 3 4 1 1 0 2 5 2 3 1 4 9 4 2 0 1 1 1 5 3 3 4 2 6 9 3 3 4 4 3 3 4 4 5 6 9 9 9 11 10 9 9 10 10
18 18 17 10 7 4 4 5 1 2 2 6 4 3 4 1 4 3 4 3 1 4 3 5 1 4 10 2 4 1 5 1 3 3 8 5 6 7 3 6 4 2 2 3 6 2 4 5 3 5 3 10 2 3 4 0 1 4 3 2 2 2 2 1 2 1 5 7 2 1 5 2 6 3 3 9 8 8 8 10 8 7 7 8 8 8 7 5
16 19 21 13 11 8 12 11 3 4 6 4 3 4 4 4 2 4 3 4 1 2 4 2 5 12 8 7 2 3 3 3 1 1 2 1 7 6 2 4 7 7 3 2 3 1 6 3 1 5 3 4 5 5 2 1 1 6 6 5 4 1 1 1 4 1 4 7 5 1 1 1 3 3 2 7 9 10 10 8 4 3 5 3 2 4 7 9
19 20 11 5 7 11 5 2 3 2 3 2 1 5 7 3 3 3 1 2 3 2 4 2 10 8 1 1 3 3 0 1 3 2 4 2 4 4 3 1 5 2 2 1 3 5 1 2 5 4 2 2 7 10 11 6 8 9 2 11 8 8 5 2 3 4 6 6 2 3 2 2 1 3 4 4 5 6 5 3 4 6 6 9 9 8 8 9
22 16 8 3 5 8 10 4 2 2 1 3 8 5 5 6 1 1 1 3 2 3 4 6 4 2 5 2 2 3 0 0 2 3 3 5 4 3 6 7 3 5 2 4 2 2 6 5 6 5 1 3 5 4 3 4 4 1 3 5 6 5 6 3 5 4 1 1 1 1 1 2 2 3 3 2 5 9 7 8 10 11 12 11 10 9 9 9
13 3 0 2 3 3 8 7 3 1 2 5 5 2 3 3 0 1 1 2 1 3 7 8 1 2 2 4 2 3 5 1 1 3 1 4 2 6 2 1 6 8 6 7 4 2 1 2 2 7 2 4 5 3 3 8 2 3 5 5 7 3 8 5 1 2 4 4 2 0 4 3 5 3 3 4 6 7 8 9 11 12 12 11 10 7 9 5
5 6 0 2 1 2 6 8 6 4 6 6 5 1 3 2 4 2 2 1 2 2 2 3 3 2 2 3 2 4 4 3 1 2 2 0 1 3 2 2 4 3 6 8 1 3 3 5 4 2 6 3 1 2 0 1 5 6 2 7 1 3 5 5 4 2 2 2 4 1 1 4 3 2 2 4 4 7 8 9 9 8 9 10 10 11 6 4
6 4 3 3 1 5 7 8 6 4 5 3 1 4 1 0 1 1 1 2 2 1 0 1 4 3 1 1 4 3 5 2 4 3 1 0 1 2 2 2 2 7 9 2 5 3 2 3 5 3 5 7 5 2 4 1 1 7 4 5 5 2 2 2 5 0 0 1 2 1 1 3 3 4 4 4 5 6 7 6 9 10 7 4 7 11 7 5
3 1 2 1 2 6 6 7 3 3 3 2 1 0 2 3 2 1 2 1 2 1 0 2 1 2 2 2 3 2 2 1 1 0 2 1 1 2 1 4 1 3 4 8 4 1 1 1 6 2 2 2 2 3 2 2 2 2 3 4 1 3 2 4 5 3 5 3 2 4 2 2 3 2 3 7 4 4 7 8 8 10 9 7 7 9 9 6
1 1 2 1 4 3 6 2 2 5 4 0 2 2 1 1 2 3 2 1 2 1 2 1 2 2 3 5 2 3 3 1 2 3 2 1 1 1 1 2 2 0 2 6 3 1 1 1 2 3 3 2 0 2 1 3 5 1 2 1 1 2 3 5 1 1 3 4 4 2 1 4 2 2 5 6 5 1 4 4 7 8 9 8 7 10 6 6
1 3 1 1 5 4 2 2 4 2 1 1 1 1 1 1 2 1 4 5 2 3 5 2 1 1 2 4 6 1 2 1 1 2 2 1 1 1 2 1 1 2 1 5 3 0 3 1 5 3 5 1 3 2 2 1 4 4 8 6 7 7 4 2 3 1 2 3 2 3 5 5 5 2 3 3 2 5 1 3 6 7 8 6 4 7 8 6
2 2 0 2 5 3 2 1 1 0 1 1 1 1 1 3 1 3 2 2 6 3 1 1 3 4 3 5 7 3 2 2 0 0 1 3 0 2 2 4 2 1 1 3 3 3 3 3 2 0 1 1 2 2 1 0 2 2 4 2 4 2 6 4 3 3 2 0 4 2 2 2 2 1 1 0 3 2 3 3 7 7 5 4 2 4 7 7
4 1 2 2 4 1 3 1 1 1 0 2 2 2 1 1 2 2 1 2 1 3 1 1 4 1 4 3 1 3 3 2 3 1 2 1 1 1 6 5 1 4 4 1 1 1 4 2 2 2 4 5 5 4 1 1 0 1 4 3 1 2 3 6 3 5 6 2 1 1 0 2 3 3 2 4 5 4 4 5 7 7 6 5 6 7 7 6
2 2 2 1 1 1 2 2 1 2 3 3 1 3 2 2 0 2 2 2 1 1 1 1 4 4 4 2 2 3 1 1 1 0 0 1 1 3 6 3 3 1 0 3 3 2 1 2 4 2 2 5 4 5 3 2 5 3 1 3 2 1 4 2 5 1 4 5 4 6 4 2 1 2 3 5 4 6 7 9 8 9 9 9 9 9 9 9
3 1 1 2 5 1 1 3 3 0 2 2 2 5 5 2 3 5 2 3 1 1 1 2 4 1 2 0 1 2 2 1 1 4 2 1 0 3 6 6 2 4 3 4 2 2 2 2 3 3 4 4 2 1 3 1 1 3 1 5 4 2 4 3 2 1 3 1 3 3 2 4 2 4 6 6 7 8 10 10 10 9 9 9 8 7 9 9
1 3 3 3 4 3 2 0 1 1 0 0 2 2 0 3 3 3 4 4 4 2 2 2 3 0 1 2 1 2 2 2 1 1 6 4 3 2 3 7 5 3 5 11 5 5 2 1 3 4 6 7 6 2 2 0 3 3 4 5 7 2 2 3 5 4 4 4 3 3 3 6 5 7 5 6 7 9 11 11 10 9 8 10 9 10 9 8
1 3 1 1 2 4 1 3 1 1 1 2 0 0 2 2 3 3 2 0 0 1 1 0 1 2 2 2 1 0 0 2 6 5 1 2 3 1 7 3 4 10 5 4 5 5 4 5 2 5 5 0 2 4 2 1 3 1 4 5 6 7 5 3 1 2 3 9 0 1 5 7 6 7 7 7 9 11 10 9 9 9 9 10 9 9 10 10
1 1 2 0 2 1 1 2 0 0 0 0 1 0 2 2 3 2 4 0 3 1 1 1 4 3 1 2 0 0 3 2 2 2 4 2 4 8 3 6 5 6 5 2 4 4 4 3 1 2 4 5 5 4 2 5 4 4 4 5 8 8 5 6 1 1 2 2 6 6 7 7 5 6 6 8 10 11 11 11 9 8 9 11 10 10 11 10
2 1 0 1 0 1 2 1 1 1 1 1 1 2 2 2 4 1 1 4 4 3 3 1 4 8 6 4 1 0 2 1 1 1 3 5 1 4 1 2 2 6 5 2 4 2 5 3 1 2 4 6 7 7 5 5 3 5 9 9 8 8 7 6 5 2 2 4 6 10 10 8 4 6 8 8 7 10 9 8 9 10 10 10 9 10 10 10
0 1 0 3 4 2 2 2 0 3 1 3 0 1 0 1 4 4 1 1 1 3 1 2 8 7 6 4 1 3 0 1 2 0 2 3 8 1 1 1 2 4 4 3 1 2 2 0 2 1 3 2 4 6 6 6 3 6 7 10 10 8 7 8 6 6 8 10 11 10 10 6 5 6 6 7 8 9 12 12 11 10 8 8 10 10 10 11
0 1 1 3 3 3 2 2 2 2 1 3 3 2 0 2 1 1 3 1 1 2 3 4 6 7 1 2 4 4 0 1 1 1 1 2 3 2 3 3 2 2 3 3 3 3 5 1 1 1 4 1 3 6 6 2 4 7 7 12 11 9 6 4 3 5 2 8 9 11 7 3 3 6 8 9 10 12 14 11 9 7 7 9 10 10 11 11
1 0 2 3 2 4 2 1 1 2 1 1 0 2 0 2 3 3 1 3 2 1 1 2 4 1 5 2 2 1 1 3 6 5 2 6 7 9 7 6 5 4 0 2 0 2 2 5 2 2 6 1 2 3 4 3 2 2 6 6 8 4 0 2 3 6 5 1 11 9 5 6 7 5 9 9 11 12 11 10 10 11 10 9 10 11 12 12
Wind_Direction
350 350 350 349 347 347 348 347 347 346 343 343 343 342 342 343 343 342 343 343 340 337 334 330 327 325 325 323 322 320 326 319 306 286 222 242 207 201 180 110 168 191 196 84 107 104 75 88 100 24 77 91 254 110 230 91 116 62 120 117 233 208 183 207 172 192 210 305 320 337 342 342 329 346 319 22 20 30 18 26 345 18 23 110 122 128 135 137
351 351 351 349 348 349 349 347 346 345 344 341 341 340 341 341 342 342 341 341 340 338 337 333 330 328 326 323 322 323 332 307 285 268 237 234 191 196 199 208 137 172 150 96 139 130 127 143 129 102 119 103 310 109 110 231 101 103 128 109 220 203 233 162 201 218 360 300 304 305 333 351 290 358 303 357 308 6 341 20 62 73 90 102 120 134 140 145
352 353 351 350 348 349 348 346 344 344 343 340 340 339 340 340 340 340 340 339 337 338 337 335 331 329 328 323 320 334 343 300 275 269 259 246 232 205 190 172 165 157 164 146 188 142 154 169 159 114 81 92 84 153 158 234 141 220 114 199 245 183 227 215 228 282 241 260 302 323 324 355 293 304 257 250 214 65 254 183 127 142 143 142 139 143 148 153
352 351 350 350 349 348 347 346 344 344 343 342 339 338 339 339 337 338 338 336 335 335 336 336 332 332 327 323 326 339 326 287 329 257 270 278 232 194 163 154 154 159 144 84 157 119 98 103 121 111 109 90 241 115 152 243 143 274 103 197 237 178 243 280 286 229 264 278 288 305 313 330 315 293 20 118 346 264 240 221 196 177 160 153 152 154 155 158
350 349 348 349 348 347 346 345 344 344 342 340 339 336 338 336 336 336 336 335 334 333 334 335 336 330 329 324 325 354 319 34 225 241 262 318 277 158 155 144 150 141 148 112 91 77 101 125 126 54 94 161 53 90 249 239 197 118 218 253 230 330 328 257 262 274 264 271 311 299 334 292 302 310 345 152 259 249 229 223 204 204 160 158 160 164 164 164
347 348 347 346 346 346 344 342 342 342 341 338 338 337 336 335 335 336 335 332 334 331 331 335 336 334 328 329 327 12 348 31 301 303 336 347 112 143 152 143 138 119 115 113 115 125 101 69 111 114 83 98 182 150 264 196 155 227 296 259 250 230 253 288 299 279 281 306 311 314 261 329 323 294 272 247 226 238 241 239 156 173 176 163 155 157 166 169
346 345 345 344 344 343 344 341 341 341 338 338 337 337 336 336 333 333 329 330 329 329 330 334 337 333 334 340 42 62 141 270 324 256 7 63 115 140 152 142 127 115 114 99 115 135 124 110 96 159 106 82 289 163 243 157 40 172 252 263 293 177 217 247 259 276 296 304 269 248 344 303 294 311 272 222 248 250 315 169 142 152 154 157 162 172 171 168
344 343 342 342 342 342 342 342 339 337 338 338 337 338 337 333 331 329 329 326 328 328 331 333 336 334 346 3 360 331 46 252 254 303 53 93 117 134 134 104 123 120 121 147 147 134 123 130 157 145 87 150 213 156 242 133 56 197 257 268 266 248 230 243 255 282 278 270 256 310 296 274 247 234 318 261 262 240 108 119 134 148 157 163 163 160 139 118
343 341 340 340 340 341 340 340 338 337 337 337 335 335 333 330 327 328 325 325 325 326 328 333 338 337 5 82 75 345 274 236 236 317 81 99 106 109 119 131 153 137 139 117 143 154 122 229 157 175 209 182 197 140 246 149 295 218 238 259 271 268 282 275 301 275 271 278 269 335 278 270 280 219 246 251 274 165 134 123 144 156 158 165 158 130 123 119
340 340 339 338 340 339 339 338 337 337 336 334 334 333 329 328 324 322 321 322 321 321 322 331 337 348 23 23 26 17 262 226 5 42 102 107 108 114 57 110 144 132 124 187 114 148 176 192 167 188 124 101 161 196 167 142 233 184 215 223 247 263 293 299 218 285 283 258 264 266 281 288 5 122 287 302 196 124 125 132 142 170 157 145 135 104 108 106
339 339 339 339 339 338 338 337 337 336 335 332 330 330 327 322 321 315 317 315 317 316 314 320 345 340 35 36 125 238 255 56 36 101 109 118 117 116 111 137 158 141 106 156 192 175 162 152 173 124 327 215 131 266 148 218 167 190 230 299 284 285 271 250 297 270 298 299 209 198 255 310 265 100 236 234 167 146 135 152 159 161 152 149 124 98 95 92
338 337 338 337 337 336 336 337 336 336 334 332 330 328 326 321 315 314 311 311 306 309 306 311 357 21 276 108 194 223 262 97 89 92 123 123 134 176 174 165 169 172 152 169 238 245 176 177 130 134 175 137 83 269 261 245 289 274 37 288 288 334 324 278 207 248 155 259 211 166 330 306 134 221 242 223 143 138 140 153 161 152 149 149 112 109 105 115
337 336 336 336 335 336 336 335 336 333 332 330 328 325 322 317 311 308 306 304 299 293 292 304 256 160 66 321 228 235 267 205 132 9 293 278 276 225 181 172 185 178 181 155 180 219 231 178 158 135 213 111 185 235 214 131 269 20 74 159 335 349 328 297 281 343 98 266 136 134 288 275 265 245 310 226 135 131 139 157 167 159 155 147 120 119 121 138
336 337 336 336 336 335 336 336 334 333 331 329 326 323 320 313 308 305 301 289 287 270 260 226 99 210 134 238 271 232 227 253 303 297 250 168 163 251 187 199 193 197 155 136 165 182 191 190 106 154 161 116 280 298 6 341 16 222 254 87 272 6 284 284 304 311 338 238 158 145 211 280 283 284 261 227 166 151 164 173 173 168 163 158 127 129 136 167
335 336 335 335 335 335 336 335 334 333 331 329 326 324 321 317 311 306 299 285 263 240 211 105 33 126 45 269 251 274 246 123 234 237 205 152 184 283 200 168 194 192 184 151 119 153 192 141 26 47 264 276 55 17 321 10 2 346 18 290 337 167 278 307 315 166 212 325 95 100 282 242 273 279 220 184 179 162 157 177 184 173 163 159 134 139 149 158
333 334 334 334 334 334 335 335 334 333 331 328 327 323 322 317 313 310 296 223 176 163 89 73 218 174 62 302 300 335 89 207 262 240 209 179 179 204 167 163 137 148 125 318 198 312 52 124 150 193 242 6 329 114 346 17 342 357 106 291 309 344 260 342 332 346 279 260 354 168 243 329 307 323 254 184 168 181 171 186 192 179 159 155 138 146 157 147
332 333 333 333 333 333 333 333 333 332 331 328 326 321 320 314 325 54 124 146 149 101 167 98 150 217 298 233 309 342 289 255 242 21 120 204 178 160 106 111 131 102 107 358 86 115 300 124 275 58 25 187 151 101 68 324 299 324 6 206 214 255 301 273 302 10 21 71 320 356 185 246 261 292 32 232 192 170 189 200 198 179 156 158 135 148 162 162
329 330 330 330 330 331 331 331 331 330 329 329 327 322 318 309 74 86 74 67 94 115 226 229 177 310 277 18 253 239 233 278 306 200 175 223 162 170 91 99 73 114 116 86 16 132 235 192 36 192 353 65 125 103 149 225 185 201 20 12 325 318 213 227 175 265 360 32 4 344 295 265 272 279 205 221 197 187 198 200 196 177 161 150 140 157 167 169
327 328 329 327 328 330 330 331 331 331 331 328 329 333 352 34 45 112 94 131 86 26 11 266 130 157 204 220 269 309 301 248 279 186 255 114 148 130 71 101 112 113 25 93 280 125 301 75 33 59 237 163 186 169 178 200 149 147 166 180 194 272 283 220 233 283 341 321 327 302 265 276 277 277 273 231 205 198 213 206 189 164 157 143 150 165 175 182
326 327 325 326 327 328 331 331 331 331 334 331 350 358 27 17 6 345 317 62 206 200 201 180 217 277 308 286 271 253 261 3 241 282 69 176 115 131 81 113 41 66 113 179 223 200 136 158 180 214 191 178 212 182 187 188 150 109 130 167 225 247 270 260 220 248 188 305 251 250 250 248 268 265 253 207 202 218 209 197 195 176 165 157 164 179 188 183
325 326 325 325 326 328 330 330 329 329 331 330 319 26 79 187 55 301 282 244 231 231 241 239 198 213 228 195 91 28 4 318 117 297 285 125 97 122 229 107 84 180 232 178 146 238 94 169 233 207 175 166 195 191 139 103 64 210 270 265 281 213 270 288 290 241 215 171 286 266 306 278 263 269 271 230 179 210 205 202 198 178 172 165 172 182 186 162
325 324 324 324 324 328 328 328 328 327 338 57 12 54 247 225 159 159 100 311 273 220 220 235 230 251 256 253 252 102 68 317 305 260 257 146 185 158 256 137 149 190 226 98 49 122 118 204 237 181 191 162 93 108 140 164 172 117 193 251 290 267 255 279 250 269 291 137 250 301 314 278 278 283 264 183 193 212 205 194 192 171 169 168 180 184 173 162
324 324 323 323 326 327 328 327 326 355 70 55 34 351 233 227 360 309 158 274 275 200 212 224 214 237 255 240 195 141 167 207 242 275 173 146 134 205 149 138 180 163 87 117 166 166 285 274 222 196 147 137 82 103 114 82 68 163 151 187 253 242 357 302 291 355 335 187 285 283 297 282 301 303 290 266 230 260 234 210 186 168 175 179 184 185 179 173
323 323 323 326 327 330 327 328 337 78 30 30 271 224 240 339 350 350 101 233 291 307 213 210 197 224 240 149 203 152 172 236 154 261 188 137 157 176 136 177 142 126 196 179 186 178 210 195 111 120 140 154 198 165 132 156 258 265 191 215 258 215 218 191 265 350 306 300 195 274 312 306 335 343 332 320 305 274 278 124 136 193 194 192 188 183 184 180
323 324 325 326 331 330 327 328 47 354 322 291 231 253 265 270 285 189 108 317 322 285 250 288 165 242 219 133 146 165 223 327 212 210 171 150 145 109 213 155 109 202 203 177 131 200 260 248 112 109 113 154 177 219 213 160 239 305 227 206 215 209 242 247 283 14 15 329 312 114 11 300 299 316 323 315 340 305 258 173 181 183 185 173 187 195 186 185
322 324 327 328 332 335 321 37 340 334 322 261 217 185 229 302 323 216 97 74 308 272 329 321 135 310 127 70 165 146 99 253 212 202 161 185 158 146 103 167 148 212 185 138 183 198 224 169 164 182 157 155 171 201 233 151 202 204 273 197 210 214 228 253 264 82 291 226 302 44 102 276 326 356 335 337 322 312 319 211 189 182 185 189 196 184 183 174
322 324 327 329 332 342 10 268 273 320 336 311 96 5 333 309 288 150 19 360 2 250 125 265 93 232 166 188 165 148 98 258 11 130 175 198 167 181 131 202 47 35 133 150 51 258 125 162 154 126 146 158 135 252 234 161 141 241 236 173 189 203 223 241 192 182 237 265 293 41 125 206 300 298 282 300 338 319 306 235 204 196 194 198 192 184 176 169
321 324 324 324 327 339 273 297 318 303 233 143 346 345 334 304 96 72 77 36 300 259 29 290 221 140 110 198 175 179 202 223 76 266 186 189 103 340 153 196 169 179 170 105 193 252 151 177 157 149 143 139 201 206 175 157 148 219 218 158 174 189 205 186 162 189 227 5 285 320 348 183 257 262 304 345 359 319 269 228 221 209 203 197 187 175 161 162
320 321 320 319 319 314 287 245 240 245 231 329 332 330 327 298 132 97 115 101 257 60 33 77 270 42 7 75 256 265 349 312 36 316 121 67 211 140 191 204 187 167 182 171 203 218 267 168 195 164 151 208 225 200 165 164 201 274 151 190 112 96 91 149 151 151 300 87 275 255 223 203 282 284 328 347 316 265 251 248 237 223 212 198 186 168 155 158
317 318 315 316 316 324 343 213 228 238 316 327 319 307 307 78 41 40 23 250 296 28 5 277 83 296 18 128 246 272 282 305 355 72 135 154 215 33 65 131 128 103 202 332 261 220 219 316 149 121 185 212 195 206 170 188 200 118 107 125 44 41 33 40 80 95 76 274 253 238 236 174 282 263 199 118 226 232 283 276 241 216 211 199 186 167 165 162
314 313 311 309 287 287 295 263 254 254 257 303 296 298 86 40 122 98 141 229 348 293 353 12 355 317 337 324 295 264 218 255 338 145 137 42 63 66 74 32 54 61 36 351 283 324 354 26 122 240 183 178 140 223 228 205 204 206 354 136 54 339 11 35 343 45 151 266 258 273 196 152 167 293 316 247 278 257 240 242 234 215 207 197 182 175 174 172
314 309 302 294 261 243 214 236 215 99 6 307 334 52 87 155 3 147 210 303 106 312 52 303 304 349 316 307 211 238 179 145 185 172 157 176 151 164 214 164 166 114 316 227 249 4 276 226 230 276 233 190 197 213 313 303 196 135 93 65 140 266 45 288 17 230 215 216 250 68 129 89 230 215 255 307 302 283 243 240 242 237 225 206 192 180 163 140
313 309 299 281 257 231 237 248 302 339 338 334 62 48 70 101 214 260 299 341 230 36 289 276 309 322 306 336 322 268 254 177 249 155 118 52 141 205 201 158 187 147 188 249 199 14 274 289 275 253 326 205 154 196 273 16 158 129 152 159 104 156 59 242 270 212 312 285 247 359 172 245 241 287 240 306 299 287 277 242 233 267 243 240 14 43 66 75
313 309 296 250 233 225 232 226 248 341 334 22 71 51 56 88 241 226 277 281 262 317 316 336 320 311 336 34 316 10 63 313 134 184 137 163 127 182 265 302 146 176 107 136 164 191 4 346 274 153 250 200 169 193 201 181 160 193 134 155 181 146 159 212 202 219 225 218 283 288 124 237 96 235 336 295 299 325 344 35 42 45 42 43 39 47 58 56
313 300 260 288 247 236 222 197 142 182 76 65 58 87 136 233 221 188 253 309 302 310 321 316 303 14 308 10 300 351 74 307 27 130 137 124 214 170 181 211 242 108 122 149 261 75 196 200 257 221 166 139 175 237 127 96 99 201 164 51 90 215 143 187 205 165 260 327 321 345 181 161 182 291 298 334 8 12 15 45 50 46 55 53 51 38 48 69
319 300 118 236 226 236 184 191 148 110 92 62 81 74 179 196 15 163 54 208 309 344 309 333 94 39 312 315 311 358 310 125 318 83 355 173 217 192 228 196 184 184 141 170 196 184 38 292 268 311 172 198 217 158 205 147 197 232 103 182 211 167 114 77 68 54 101 57 241 227 316 308 303 329 291 347 26 19 27 54 67 72 74 72 89 49 35 43
319 322 67 260 251 126 150 153 159 119 69 91 91 222 208 275 202 160 285 14 256 264 16 53 305 71 352 309 291 335 319 43 334 100 223 263 307 197 189 234 156 185 209 142 288 187 142 241 289 91 303 287 204 182 192 240 144 92 172 234 148 101 115 130 202 342 71 167 254 36 307 307 35 266 313 346 24 28 40 64 75 79 77 85 87 97 98 91
323 307 262 307 28 126 138 153 132 62 78 80 130 232 200 139 166 170 229 351 11 356 80 132 272 69 319 21 300 303 310 69 292 35 201 173 205 174 117 168 211 187 209 223 175 266 137 302 297 239 229 274 342 116 24 2 343 155 198 174 109 265 231 321 94 229 133 259 274 332 277 254 162 252 9 6 18 23 28 70 61 54 46 44 82 83 80 103
272 330 46 348 140 151 149 160 69 80 58 65 242 350 239 231 254 216 260 121 208 63 108 242 160 295 31 321 247 291 295 335 272 196 115 242 125 204 218 172 230 239 242 160 174 170 27 189 292 296 173 318 360 58 242 274 328 37 100 89 340 105 163 133 197 170 124 222 67 290 40 239 225 219 324 308 331 35 35 53 54 72 69 62 83 73 70 51
290 52 340 28 135 153 157 114 52 50 71 153 217 217 219 255 266 264 261 70 310 136 244 218 225 293 321 245 227 281 288 198 155 251 114 261 175 270 204 326 190 25 98 166 149 145 144 94 219 280 302 346 289 350 241 166 156 103 85 256 55 22 215 105 32 86 169 166 177 169 309 281 278 238 289 295 297 305 98 63 65 64 58 44 29 76 68 73
257 104 266 123 155 151 134 40 56 56 112 256 152 240 317 250 318 276 262 220 216 242 207 204 205 220 226 338 309 184 278 220 175 167 185 298 153 284 296 166 217 130 69 61 79 67 86 110 196 313 358 359 238 256 238 210 195 171 164 197 169 124 120 146 254 24 82 99 198 131 238 267 268 279 276 275 265 321 299 139 120 98 74 56 2 57 85 78
73 79 291 174 155 149 68 43 18 217 99 185 274 194 280 324 337 277 278 273 183 258 227 225 252 221 242 236 233 301 265 305 208 127 273 165 265 137 257 12 14 188 108 149 156 223 141 162 99 243 195 225 245 257 177 124 120 186 135 182 151 120 103 97 151 234 57 47 117 147 115 276 257 310 69 47 76 63 18 40 78 89 107 122 81 70 65 64
59 154 291 137 190 109 67 55 282 44 167 233 284 286 245 280 212 263 344 291 284 205 253 207 221 174 251 216 277 223 199 242 162 215 208 171 220 225 282 305 62 32 75 319 20 218 99 64 40 303 313 296 307 282 309 47 82 19 21 50 77 170 177 166 172 180 139 182 80 11 145 252 299 53 123 103 100 64 34 41 66 59 52 81 106 78 65 60
125 127 54 8 15 85 83 236 323 300 269 312 43 267 280 242 209 329 231 279 193 327 200 258 318 213 257 192 254 266 275 339 205 77 338 155 46 268 355 255 142 110 83 233 139 254 91 293 117 55 5 338 342 348 5 335 49 69 25 329 340 26 59 151 111 67 99 209 164 127 224 269 282 104 102 118 89 77 64 49 54 60 51 45 41 44 39 32
100 349 46 305 4 103 206 185 146 189 292 320 348 328 338 335 220 214 221 271 331 240 33 261 217 310 291 33 265 269 305 175 281 8 45 4 255 350 318 30 282 115 261 216 109 99 101 186 113 123 147 160 211 249 258 283 279 289 57 355 1 55 119 95 151 63 148 247 113 129 211 264 222 108 96 103 97 73 65 62 51 48 55 54 47 49 52 38
103 130 305 351 14 40 82 84 110 138 124 338 13 279 193 307 316 279 189 270 207 285 218 279 321 121 270 29 338 1 343 323 134 39 9 340 333 348 358 339 35 104 102 66 41 72 119 51 67 147 154 188 200 217 256 146 12 52 308 17 335 331 321 110 98 95 193 184 67 231 171 160 148 116 101 74 81 76 61 52 47 46 46 52 47 50 51 53
141 94 156 195 345 38 112 1 95 71 260 145 82 282 315 264 268 315 177 274 37 207 275 130 316 23 314 31 303 317 267 345 358 79 300 314 285 339 305 342 30 19 19 57 9 82 72 67 16 95 70 97 243 242 267 103 111 14 31 335 337 354 329 80 118 174 160 110 243 233 188 131 132 111 114 111 87 69 61 55 57 55 60 63 53 52 56 53
73 247 116 172 129 256 51 330 121 153 167 98 294 86 296 325 351 22 321 267 314 316 58 326 33 40 285 259 269 328 341 27 16 24 332 35 9 323 351 0 57 360 23 59 12 99 123 114 283 87 38 28 29 30 36 90 74 94 56 21 14 350 14 91 215 190 112 124 188 163 147 122 71 26 47 60 76 88 80 76 68 66 54 56 52 48 50 46
122 146 150 291 96 258 159 256 251 85 52 164 261 20 318 358 345 257 189 314 15 347 42 17 314 337 331 329 158 119 360 73 20 342 58 330 99 282 29 336 16 23 50 65 33 91 90 53 37 102 83 37 19 22 15 92 127 54 34 26 14 26 37 61 74 21 89 121 126 121 87 68 19 28 46 56 73 87 80 73 70 60 60 63 64 59 50 44
340 108 294 12 90 103 310 4 33 58 54 340 358 282 220 293 337 334 333 106 357 319 331 52 311 326 332 340 37 91 127 129 160 220 272 55 325 30 280 173 266 343 50 67 82 345 101 265 136 48 67 4 1 354 24 30 84 77 28 26 19 13 43 46 81 74 79 76 84 91 95 69 28 32 52 54 70 79 70 63 68 70 61 67 68 65 59 55
181 155 151 112 46 317 340 25 49 84 55 337 48 284 28 297 272 260 280 222 153 322 353 315 308 324 12 35 63 89 181 152 201 169 153 111 256 283 33 291 16 339 358 33 29 345 62 158 53 89 88 12 355 2 339 21 74 90 44 17 4 3 19 347 13 337 289 145 122 109 107 119 76 60 62 53 57 60 72 67 60 44 46 65 68 60 60 51
85 30 85 102 86 339 19 315 15 61 13 240 181 274 185 284 290 294 357 287 234 223 319 301 298 16 312 27 61 112 215 225 234 223 192 191 207 255 249 257 300 281 220 99 165 78 110 131 119 109 109 262 323 340 325 346 49 8 2 339 324 303 346 29 360 356 352 198 137 157 163 116 127 105 85 58 66 65 62 57 69 65 47 53 59 60 56 51